Weather in Starotsurukhaytuy

Russia / Zabaykalsky Krai     50°11′52″N   119°19′36″E
В апреле 2022 года жителям России запретили посещать сайт meteo.paraplan.net по решению Генеральной прокуратуры. Аудитория сайта уменьшилась в 10 раз. Владельцы сайта не видят смысла в поддержке погодного сервера в таких условиях. Сайт будет закрыт в октябре.
temp.,
°C
wind,
m/s
gust,
m/s
humid.,
%
clouds,
%
prec.,
mm/h
press.,
hPa
HPBL,
m
25 september, sun
sun2500:00+9n2888100 2.3 1005475
03:00+6wnw22921 2.5 100624
06:00+5w12929 0.0 100712
09:00+9w486688 0.0 1008408
12:00+12wnw783878 0.0 10081462
15:00+13w10122733 0.0 10082429
18:00+11wnw8122998 0.0 10092747
21:00+5wsw49450 0.0 1013182
26 september, mon
mon2600:00+4w5114499 0.0 1014256
03:00+2w3558100 0.0 101476
06:00+2w2259100 0.0 101621
09:00+5wsw4546100 0.0 1015463
12:00+8wsw335092 0.1 10151208
15:00+11w554074 0.1 10141839
18:00+10w344366 0.0 1014319
21:00+5s22595 0.0 101511
27 september, tue
tue2700:00+3se237883 0.0 101334
03:00+2ese23825 0.0 101249
06:00+1ese338094 0.0 100838
09:00+7s4652100 0.0 1005279
12:00+17wsw6102899 0.0 1001747
15:00+20wnw81027100 0.0 10001546
18:00+16nw7103099 0.0 1003738
21:00+11nw4104299 0.0 1006321
28 september, wed
wed2800:00+9n3446100 0.0 1008105
03:00+8n2342100 0.0 100977
06:00+6n11467 0.0 101110
09:00+8nne2236100 0.0 1012229
12:00+12ne3322100 0.0 10111045
15:00+15ene3319100 0.0 10081124
18:00+14ene4622100 0.0 1007195
21:00+11ne4923100 0.0 1007263
29 september, thu
thu2900:00+10e5940100 0.0 1004233
03:00+9ese51041100 0.0 1001300
06:00+7ne3348100 0.0 100053
09:00+9n22404 0.0 1001271
12:00+14wnw5733100 0.0 10011107
15:00+11wnw10115737 0.0 10031102
18:00+8nw8115859 0.0 10071361
21:00+5nw610635 0.0 1011528